Pueblo, CO

3:52 PM MDT on August 30, 2016 (GMT -0600)
Pueblo Memorial

Weather History for KPUB - December, 2012

Change the Weather History Date:

Monday, December 3, 2012

  Actual Average Record
Temperature  
Mean Temperature 45 °F 32 °F  
Max Temperature 63 °F 48 °F 75 °F (2010)
Min Temperature 26 °F 16 °F -2 °F (2006)
Degree Days  
Heating Degree Days 20 33  
Month to date heating degree days 54 98  
Since 1 July heating degree days 1192 1379  
Cooling Degree Days 0 0  
Month to date cooling degree days 0 0  
Year to date cooling degree days 1322 897  
Moisture  
Dew Point 18 °F    
Average Humidity 29    
Maximum Humidity 43    
Minimum Humidity 15    
Precipitation  
Precipitation 0.00 in 0.01 in 0.19 in (2005)
Month to date precipitation 0.00 0.04  
Year to date precipitation 4.70 12.23  
Snow  
Snow 0.00 in 0.10 in 3.20 in (2005)
Month to date snowfall 0.0 0.5  
Since 1 July snowfall 1.6 6.5  
Snow Depth 0.00 in    
Sea Level Pressure  
Sea Level Pressure 29.90 in    
Wind  
Wind Speed 12 mph (NNE)    
Max Wind Speed 33 mph    
Max Gust Speed 40 mph    
Visibility 9 miles    
Events      
T = Trace of Precipitation, MM = Missing Value Source: NWS Daily Summary

Daily Weather History Graph

Daily Weather History Graph

Search for Another Location

Airport or City:

Trip Planner

Search our weather history database for the weather conditions in past years. The results will help you decide how hot, cold, wet, or windy it might be!

Date:

Astronomy

Dec. 03, 2012 Rise Set
Actual Time 6:58 AM MST 4:37 PM MST
Civil Twilight 6:29 AM MST 5:06 PM MST
Nautical Twilight 5:56 AM MST 5:39 PM MST
Astronomical Twilight 5:24 AM MST 6:11 PM MST
Moon 9:24 PM MST (12/3) 10:24 AM MST (12/3)
Length of Visible Light 10h 37m
Length of Day
9h 39m
Waning Gibbous, 77% of the Moon is Illuminated
Dec 3
Waning Gibbous
Dec 6
Last Quarter
Dec 13
New
Dec 19
First Quarter
Dec 28
Full

Hourly Weather History & Observations

Time (MST) Temp. Windchill Dew Point Humidity Pressure Visibility Wind Dir Wind Speed Gust Speed Precip Events Conditions
12:07 AM 60.8 °F - 19.4 °F 20% 29.67 in 4.0 mi WNW 20.7 mph 39.1 mph N/A   Haze
12:53 AM 60.1 °F - 19.9 °F 21% 29.54 in 8.0 mi NW 24.2 mph 36.8 mph N/A   Clear
1:26 AM 60.8 °F - 21.2 °F 22% 29.69 in 2.5 mi NW 32.2 mph 40.3 mph N/A   Haze
1:35 AM 60.8 °F - 21.2 °F 22% 29.69 in 6.0 mi NW 29.9 mph 40.3 mph N/A   Haze
1:53 AM 60.1 °F - 21.0 °F 22% 29.55 in 10.0 mi NW 23.0 mph 35.7 mph N/A   Clear
2:53 AM 55.9 °F - 21.0 °F 26% 29.63 in 10.0 mi NNE 9.2 mph - N/A   Clear
3:53 AM 57.0 °F - 21.0 °F 25% 29.63 in 10.0 mi WNW 10.4 mph - N/A   Clear
4:53 AM 55.9 °F - 24.1 °F 29% 29.69 in 10.0 mi WNW 13.8 mph - N/A   Clear
5:53 AM 51.1 °F - 24.1 °F 35% 29.78 in 10.0 mi NE 6.9 mph - N/A   Clear
6:53 AM 55.0 °F - 26.1 °F 33% 29.78 in 10.0 mi West 20.7 mph - N/A   Clear
7:53 AM 55.4 °F - 24.8 °F 31% 29.89 in 10.0 mi West 19.6 mph - N/A   Clear
8:53 AM 59.0 °F - 24.1 °F 26% 29.82 in 10.0 mi West 12.7 mph - N/A   Clear
9:53 AM 57.9 °F - 26.1 °F 30% 29.90 in 10.0 mi East 17.3 mph 23.0 mph N/A   Partly Cloudy
10:02 AM 57.2 °F - 26.6 °F 31% 29.97 in 10.0 mi ENE 18.4 mph - N/A   Clear
10:53 AM 59.0 °F - 23.0 °F 25% 29.92 in 10.0 mi NE 18.4 mph - N/A   Mostly Cloudy
11:53 AM 60.1 °F - 14.0 °F 16% 29.87 in 9.0 mi East 20.7 mph 28.8 mph N/A   Clear
12:53 PM 59.0 °F - 12.9 °F 16% 29.88 in 10.0 mi East 17.3 mph - N/A   Clear
1:53 PM 57.0 °F - 12.9 °F 18% 29.92 in 10.0 mi East 12.7 mph 21.9 mph N/A   Clear
2:53 PM 55.9 °F - 10.9 °F 17% 29.96 in 10.0 mi ESE 16.1 mph - N/A   Mostly Cloudy
3:53 PM 53.1 °F - 12.0 °F 20% 30.00 in 10.0 mi ESE 12.7 mph - N/A   Partly Cloudy
4:53 PM 48.9 °F - 10.9 °F 22% 30.05 in 10.0 mi SE 4.6 mph - N/A   Clear
5:53 PM 48.0 °F - 12.0 °F 24% 30.09 in 10.0 mi South 4.6 mph - N/A   Clear
6:53 PM 42.1 °F 39.2 °F 10.9 °F 28% 30.11 in 10.0 mi NE 4.6 mph - N/A   Clear
7:53 PM 39.0 °F 34.8 °F 10.9 °F 32% 30.13 in 10.0 mi ENE 5.8 mph - N/A   Clear
8:53 PM 36.0 °F - 10.9 °F 36% 30.14 in 10.0 mi Calm Calm - N/A   Clear
9:53 PM 33.1 °F - 10.9 °F 40% 30.15 in 10.0 mi Calm Calm - N/A   Clear
10:53 PM 30.9 °F 26.2 °F 10.9 °F 43% 30.17 in 10.0 mi North 4.6 mph - N/A   Clear
11:53 PM 27.0 °F - 8.1 °F 45% 30.20 in 10.0 mi Calm Calm - N/A   Clear